Regional Weather Roundup
Issued by NWS

Home | Current Version | Previous Version | Graphics & Text | Print | Product List | Glossary On
Versions: 1 2 3 4 5 6 7 8 9 10 11 12 13 14 15 16 17 18 19 20 21 22 23 24 25 26 27 28 29 30 31 32 33 34 35 36 37 38 39 40 41 42 43 44 45 46 47 48 49 50
000
ASUS43 KMKX 290911
RWRWI

WISCONSIN REGIONAL WEATHER ROUNDUP
NATIONAL WEATHER SERVICE MILWAUKEE/SULLIVAN WI
400 AM CDT SAT AUG 29 2015

NOTE: "FAIR" INDICATES FEW OR NO CLOUDS BELOW 12,000 FEET WITH NO
SIGNIFICANT WEATHER AND/OR OBSTRUCTIONS TO VISIBILITY.

WIZ001-002-006>008-014>016-023>028-291000-
NORTHWEST WISCONSIN

CITY           SKY/WX    TMP DP  RH WIND       PRES   REMARKS
SUPERIOR ARPT  CLOUDY    58  56  95 CALM      30.05R
ASHLAND        CLOUDY    61  59  93 NE5       30.09R
HAYWARD        PTCLDY    54  52  93 NE6       30.08R
SIREN          CLEAR     56  55  95 S3        30.05S
CUMBERLAND     PTCLDY    54  52  94 CALM      30.05F
RICE LAKE      CLEAR     52  51  95 CALM      30.06F
CHETEK         CLEAR    N/A N/A N/A CALM      30.06S
LADYSMITH      CLEAR     53  51  96 CALM      30.08S FOG
EAU CLAIRE     CLEAR     52  51  97 E5        30.03S
MENOMONIE      CLEAR     53  52  97 CALM      30.04F
NEW RICHMOND   CLEAR     53  52  99 CALM      30.05S
OSCEOLA        CLEAR     55  55 100 CALM      30.06F
$$

WIZ003>005-009-010-017-018-291000-
NORTH CENTRAL WISCONSIN

CITY           SKY/WX    TMP DP  RH WIND       PRES   REMARKS
MANITOWISH WTR MOCLDY    56  55  94 CALM      30.10F
ARBOR VITAE    MOCLDY    57  55  95 N3        30.11R
WOODRUFF       MOCLDY    57  55  95 N3        30.11R
RHINELANDER    PTCLDY    52  51  97 CALM      30.10R
EAGLE RIVER    CLOUDY    56  55  95 CALM      30.11R
LAND O LAKES   DRIZZLE   58  53  83 SW3       30.10F
PHILLIPS       PTCLDY    52  52 100 NE5       30.08S
TOMAHAWK         N/A     50  49  97 CALM      30.09S FOG
MEDFORD        MOCLDY    50  50  99 NE5       30.07R FOG
MERRILL        CLEAR     52  52 100 CALM      30.08R
$$

WIZ029-030-035-036-043>047-291000-
CENTRAL WISCONSIN

CITY           SKY/WX    TMP DP  RH WIND       PRES   REMARKS
WAUSAU         CLOUDY    57  54  89 SE7       30.05S
MOSINEE        CLOUDY    54  54 100 SE6       30.07S
MARSHFIELD     CLOUDY    57  53  86 SE9       30.05S
STEVENS POINT  DRIZZLE   56  55  99 E3        30.06F
WAUPACA        CLOUDY    59  58  97 E6        30.07F FOG
WAUTOMA        LGT RAIN  57  57 100 CALM      30.06F FOG
WISC RAPIDS    CLOUDY    59  56  89 E3        30.06F
CAMP DOUGLAS   CLOUDY    58  58 100 E5        30.02F
$$

WIZ011>013-019>022-031-037>040-048>050-291000-
NORTHEAST WISCONSIN

CITY           SKY/WX    TMP DP  RH WIND       PRES   REMARKS
ANTIGO         CLEAR     53  52  97 S3        30.08S
SHAWANO        CLOUDY    59  56  90 CALM      30.08F
OCONTO         CLOUDY    57  57 100 CALM      30.08S
STURGEON BAY   CLOUDY    57  55  94 S6        30.11F
GREEN BAY      LGT RAIN  58  57  97 CALM      30.09F FOG
MANITOWOC      LGT RAIN  57  57 100 MISG      30.10F FOG
APPLETON       RAIN      57  57 100 NE3       30.07S
CLINTONVILLE   DRIZZLE   55  55 100 CALM      30.08S
OSHKOSH        LGT RAIN  59  57  93 E5        30.06F FOG
$$

WIZ032>034-041-042-053>061-291000-
SOUTHWEST WISCONSIN

CITY           SKY/WX    TMP DP  RH WIND       PRES   REMARKS
LA CROSSE      CLOUDY    60  57  89 E6        29.99F
SPARTA         CLOUDY    58  56  94 E6        30.02F
VIROQUA        CLOUDY    58  58 100 E8        30.00F
BOSCOBEL       LGT RAIN  63  61  93 VRB5      29.98S FOG
PRAIRIE DU CHI LGT RAIN  63  62  96 CALM      29.96S
PLATTEVILLE    CLOUDY    64  64  99 S7        29.97S
$$

WIZ056-057-062-063-064-067-068-291000-
SOUTH CENTRAL WISCONSIN

CITY           SKY/WX    TMP DP  RH WIND       PRES   REMARKS
REEDSBURG      DRIZZLE   57  57  99 E6        30.01F
BARABOO/DELLS  DRIZZLE   58  56  94 E10       30.02S
LONE ROCK      LGT RAIN  62  61  96 NE8       29.99F FOG
MINERAL POINT  RAIN      64  63  94 E3        29.98S
MADISON        HVY RAIN  63  61  93 E9        30.00F FOG
MIDDLETON      CLOUDY    64  64  99 SE8       30.01F
WATERTOWN      LGT RAIN  60  60 100 E7        30.03F
MONROE         HVY RAIN  63  61  94 S12G18    29.99R
JANESVILLE     RAIN      63  61  94 S9        30.01S
$$

WIZ051-052-058>065-066-070>072-291000-
SOUTHEAST WISCONSIN

CITY           SKY/WX    TMP DP  RH WIND       PRES   REMARKS
MILWAUKEE      RAIN      64  62  93 E10       30.04F FOG
WAUKESHA       LGT RAIN  59  59 100 NE5       30.05F
MILWAUKEE/TIMM RAIN      59  55  88 NE8       30.06S
RACINE         LGT RAIN  64  61  90 SE6       30.05F FOG
BURLINGTON     RAIN      63  62  97 SE3       30.02F
KENOSHA        LGT RAIN  66  64  93 S6        30.04S FOG
FOND DU LAC    LGT RAIN  58  57  97 SE5       30.07S FOG
SHEBOYGAN      HVY RAIN  57  56  96 NE8       30.08F FOG
WEST BEND      HVY RAIN  55  55 100 CALM      30.08R
JUNEAU         RAIN      57  57  98 E7        30.07S
$$

LSZ147-162-291000-
LAKE SUPERIOR

STATION/POSITION TIME  TEMP    WIND        PRES    WAVE
                       AIR SEA DIR/SP/G            HT/PER
                 (UTC) (F)     (DEG/KT/KT) (MB)    (FT/S)
W MID LAKE BUOY  0850   58 56  220/ 19/ 21 1014.4F   2/ 4
DEVILS ISLAND    0900   59     230/ 16/ 20 1017.3F
PORT WING        0903   59      30/ 19/ 28 1020.0R
SAXON HARBOR     0800   63        CALM     1018.3R
$$

LMZ867-665-643>646-291000-
LAKE MICHIGAN

STATION/POSITION TIME  TEMP    WIND        PRES    WAVE
                       AIR SEA DIR/SP/G            HT/PER
                 (UTC) (F)     (DEG/KT/KT) (MB)    (FT/S)
CHAMBERS ISLAND  0800   60     190/  7/ 11 1018.6F
S GREEN BAY BUOY 0900   60 62  180/ 10/ 12 1020.0F
N MID LAKE BUOY  0850   63 64  240/ 16/ 19 1018.8R   3/ 4
NORTHPORT PIER   0800   61     200/  2/ 19 1018.6F
SISTER BAY       0819   61     220/ 13/ 16   N/A
ALGOMA LAKESHORE 0814             CALM       N/A
SHEBOYGAN LAKESH 0900   53      20/ 11/ 11 1019.1F
PORT WASHINGTON  0840   58      30/  4/  8 1019.0F
ATWATER BUOY     0900   52 47  360/ 12/ 16 1018.8F
MILWAUKEE LAKESH 0800   58      50/  8/  8   N/A
S MID LAKE BUOY  0850   68 68  100/ 12/ 14 1017.4F   1/ 3
KENOSHA   LAKESH 0900   64     180/  9/ 11 1016.9S
$$

TC  - TEMPERATURE IN CELSIUS
VSB - VISIBILITY IN STATUTE MILES
WCI - WIND CHILL INDEX
HX  - HEAT INDEX



USA.gov is the U.S. government's official web portal to all federal, state and local government web resources and services.